#datetime,building,power
2022-04-16T00:00:00,mcc,58.23
2022-04-16T00:01:00,mcc,61.04
2022-04-16T00:02:00,mcc,56.43
2022-04-16T00:03:00,mcc,55.56
2022-04-16T00:04:00,mcc,53.77
2022-04-16T00:05:00,mcc,53.27
2022-04-16T00:06:00,mcc,54.97
2022-04-16T00:07:00,mcc,65.45
2022-04-16T00:08:00,mcc,57.61
2022-04-16T00:09:00,mcc,59.31
2022-04-16T00:10:00,mcc,58.10
2022-04-16T00:11:00,mcc,58.47
2022-04-16T00:12:00,mcc,57.30
2022-04-16T00:13:00,mcc,58.19
2022-04-16T00:14:00,mcc,56.40
2022-04-16T00:15:00,mcc,57.37
2022-04-16T00:16:00,mcc,54.60
2022-04-16T00:17:00,mcc,54.58
2022-04-16T00:18:00,mcc,55.05
2022-04-16T00:19:00,mcc,54.26
2022-04-16T00:20:00,mcc,53.85
2022-04-16T00:21:00,mcc,53.27
2022-04-16T00:22:00,mcc,53.76
2022-04-16T00:23:00,mcc,54.22
2022-04-16T00:24:00,mcc,55.37
2022-04-16T00:25:00,mcc,53.42
2022-04-16T00:26:00,mcc,51.92
2022-04-16T00:27:00,mcc,51.14
2022-04-16T00:28:00,mcc,47.53
2022-04-16T00:29:00,mcc,47.98
2022-04-16T00:30:00,mcc,49.07
2022-04-16T00:31:00,mcc,47.03
2022-04-16T00:32:00,mcc,44.66
2022-04-16T00:33:00,mcc,48.79
2022-04-16T00:34:00,mcc,46.71
2022-04-16T00:35:00,mcc,48.31
2022-04-16T00:36:00,mcc,49.29
2022-04-16T00:37:00,mcc,46.93
2022-04-16T00:38:00,mcc,61.64
2022-04-16T00:39:00,mcc,49.20
2022-04-16T00:40:00,mcc,44.39
2022-04-16T00:41:00,mcc,43.51
2022-04-16T00:42:00,mcc,44.65
2022-04-16T00:43:00,mcc,42.37
2022-04-16T00:44:00,mcc,51.32
2022-04-16T00:45:00,mcc,52.38
2022-04-16T00:46:00,mcc,50.95
2022-04-16T00:47:00,mcc,49.52
2022-04-16T00:48:00,mcc,48.94
2022-04-16T00:49:00,mcc,41.42
2022-04-16T00:50:00,mcc,40.40
2022-04-16T00:51:00,mcc,43.52
2022-04-16T00:52:00,mcc,39.13
2022-04-16T00:53:00,mcc,37.70
2022-04-16T00:54:00,mcc,39.87
2022-04-16T00:55:00,mcc,37.89
2022-04-16T00:56:00,mcc,38.79
2022-04-16T00:57:00,mcc,40.22
2022-04-16T00:58:00,mcc,41.24
2022-04-16T00:59:00,mcc,41.77
2022-04-16T01:00:00,mcc,41.00
2022-04-16T01:01:00,mcc,40.75
2022-04-16T01:02:00,mcc,40.70
2022-04-16T01:03:00,mcc,44.94
2022-04-16T01:04:00,mcc,43.11
2022-04-16T01:05:00,mcc,43.72
2022-04-16T01:06:00,mcc,44.60
2022-04-16T01:07:00,mcc,41.26
2022-04-16T01:08:00,mcc,41.57
2022-04-16T01:09:00,mcc,42.04
2022-04-16T01:10:00,mcc,41.52
2022-04-16T01:11:00,mcc,52.77
2022-04-16T01:12:00,mcc,51.96
2022-04-16T01:13:00,mcc,50.53
2022-04-16T01:14:00,mcc,49.75
2022-04-16T01:15:00,mcc,39.89
2022-04-16T01:16:00,mcc,41.82
2022-04-16T01:17:00,mcc,40.50
2022-04-16T01:18:00,mcc,40.14
2022-04-16T01:19:00,mcc,37.80
2022-04-16T01:20:00,mcc,36.96
2022-04-16T01:21:00,mcc,44.13
2022-04-16T01:22:00,mcc,44.68
2022-04-16T01:23:00,mcc,40.26
2022-04-16T01:24:00,mcc,37.44
2022-04-16T01:25:00,mcc,46.37
2022-04-16T01:26:00,mcc,38.35
2022-04-16T01:27:00,mcc,39.18
2022-04-16T01:28:00,mcc,37.84
2022-04-16T01:29:00,mcc,41.07
2022-04-16T01:30:00,mcc,37.92
2022-04-16T01:31:00,mcc,37.27
2022-04-16T01:32:00,mcc,38.67
2022-04-16T01:33:00,mcc,36.95
2022-04-16T01:34:00,mcc,39.24
2022-04-16T01:35:00,mcc,41.66
2022-04-16T01:36:00,mcc,40.30
2022-04-16T01:37:00,mcc,40.42
2022-04-16T01:38:00,mcc,42.48
2022-04-16T01:39:00,mcc,39.05
2022-04-16T01:40:00,mcc,40.35
2022-04-16T01:41:00,mcc,42.07
2022-04-16T01:42:00,mcc,41.50
2022-04-16T01:43:00,mcc,39.44
2022-04-16T01:44:00,mcc,41.32
2022-04-16T01:45:00,mcc,47.71
2022-04-16T01:46:00,mcc,39.76
2022-04-16T01:47:00,mcc,43.58
2022-04-16T01:48:00,mcc,43.01
2022-04-16T01:49:00,mcc,42.39
2022-04-16T01:50:00,mcc,42.68
2022-04-16T01:51:00,mcc,40.31
2022-04-16T01:52:00,mcc,40.63
2022-04-16T01:53:00,mcc,41.83
2022-04-16T01:54:00,mcc,39.50
2022-04-16T01:55:00,mcc,39.68
2022-04-16T01:56:00,mcc,41.73
2022-04-16T01:57:00,mcc,38.66
2022-04-16T01:58:00,mcc,40.26
2022-04-16T01:59:00,mcc,44.84
2022-04-16T02:00:00,mcc,42.39
2022-04-16T02:01:00,mcc,43.18
2022-04-16T02:02:00,mcc,42.55
2022-04-16T02:03:00,mcc,41.22
2022-04-16T02:04:00,mcc,49.70
2022-04-16T02:05:00,mcc,42.71
2022-04-16T02:06:00,mcc,42.92
2022-04-16T02:07:00,mcc,43.74
2022-04-16T02:08:00,mcc,44.17
2022-04-16T02:09:00,mcc,44.06
2022-04-16T02:10:00,mcc,46.27
2022-04-16T02:11:00,mcc,43.26
2022-04-16T02:12:00,mcc,42.46
2022-04-16T02:13:00,mcc,44.79
2022-04-16T02:14:00,mcc,41.85
2022-04-16T02:15:00,mcc,41.32
2022-04-16T02:16:00,mcc,41.69
2022-04-16T02:17:00,mcc,41.14
2022-04-16T02:18:00,mcc,41.98
2022-04-16T02:19:00,mcc,42.77
2022-04-16T02:20:00,mcc,42.38
2022-04-16T02:21:00,mcc,41.85
2022-04-16T02:22:00,mcc,44.82
2022-04-16T02:23:00,mcc,42.93
2022-04-16T02:24:00,mcc,41.78
2022-04-16T02:25:00,mcc,44.49
2022-04-16T02:26:00,mcc,42.47
2022-04-16T02:27:00,mcc,43.55
2022-04-16T02:28:00,mcc,44.44
2022-04-16T02:29:00,mcc,41.56
2022-04-16T02:30:00,mcc,42.25
2022-04-16T02:31:00,mcc,45.73
2022-04-16T02:32:00,mcc,45.52
2022-04-16T02:33:00,mcc,45.60
2022-04-16T02:34:00,mcc,45.89
2022-04-16T02:35:00,mcc,44.33
2022-04-16T02:36:00,mcc,42.65
2022-04-16T02:37:00,mcc,44.57
2022-04-16T02:38:00,mcc,42.10
2022-04-16T02:39:00,mcc,42.31
2022-04-16T02:40:00,mcc,43.40
2022-04-16T02:41:00,mcc,41.24
2022-04-16T02:42:00,mcc,50.79
2022-04-16T02:43:00,mcc,45.03
2022-04-16T02:44:00,mcc,45.22
2022-04-16T02:45:00,mcc,46.10
2022-04-16T02:46:00,mcc,44.63
2022-04-16T02:47:00,mcc,44.30
2022-04-16T02:48:00,mcc,42.50
2022-04-16T02:49:00,mcc,41.55
2022-04-16T02:50:00,mcc,41.07
2022-04-16T02:51:00,mcc,41.27
2022-04-16T02:52:00,mcc,41.49
2022-04-16T02:53:00,mcc,41.54
2022-04-16T02:54:00,mcc,43.69
2022-04-16T02:55:00,mcc,45.31
2022-04-16T02:56:00,mcc,45.20
2022-04-16T02:57:00,mcc,43.90
2022-04-16T02:58:00,mcc,44.81
2022-04-16T02:59:00,mcc,41.10
2022-04-16T03:00:00,mcc,41.48
2022-04-16T03:01:00,mcc,48.36
2022-04-16T03:02:00,mcc,44.15
2022-04-16T03:03:00,mcc,45.89
2022-04-16T03:04:00,mcc,45.23
2022-04-16T03:05:00,mcc,45.07
2022-04-16T03:06:00,mcc,47.81
2022-04-16T03:07:00,mcc,46.72
2022-04-16T03:08:00,mcc,48.59
2022-04-16T03:09:00,mcc,50.00
2022-04-16T03:10:00,mcc,49.77
2022-04-16T03:11:00,mcc,49.04
2022-04-16T03:12:00,mcc,50.14
2022-04-16T03:13:00,mcc,47.38
2022-04-16T03:14:00,mcc,41.05
2022-04-16T03:15:00,mcc,44.74
2022-04-16T03:16:00,mcc,42.02
2022-04-16T03:17:00,mcc,39.93
2022-04-16T03:18:00,mcc,41.95
2022-04-16T03:19:00,mcc,47.84
2022-04-16T03:20:00,mcc,39.67
2022-04-16T03:21:00,mcc,41.29
2022-04-16T03:22:00,mcc,38.29
2022-04-16T03:23:00,mcc,38.09
2022-04-16T03:24:00,mcc,42.01
2022-04-16T03:25:00,mcc,39.10
2022-04-16T03:26:00,mcc,36.66
2022-04-16T03:27:00,mcc,40.45
2022-04-16T03:28:00,mcc,37.68
2022-04-16T03:29:00,mcc,38.15
2022-04-16T03:30:00,mcc,36.75
2022-04-16T03:31:00,mcc,37.80
2022-04-16T03:32:00,mcc,37.48
2022-04-16T03:33:00,mcc,41.54
2022-04-16T03:34:00,mcc,39.33
2022-04-16T03:35:00,mcc,39.12
2022-04-16T03:36:00,mcc,38.21
2022-04-16T03:37:00,mcc,38.32
2022-04-16T03:38:00,mcc,45.99
2022-04-16T03:39:00,mcc,38.45
2022-04-16T03:40:00,mcc,38.55
2022-04-16T03:41:00,mcc,38.12
2022-04-16T03:42:00,mcc,38.55
2022-04-16T03:43:00,mcc,37.02
2022-04-16T03:44:00,mcc,39.72
2022-04-16T03:45:00,mcc,38.40
2022-04-16T03:46:00,mcc,38.37
2022-04-16T03:47:00,mcc,39.75
2022-04-16T03:48:00,mcc,38.32
2022-04-16T03:49:00,mcc,38.91
2022-04-16T03:50:00,mcc,41.61
2022-04-16T03:51:00,mcc,38.83
2022-04-16T03:52:00,mcc,38.27
2022-04-16T03:53:00,mcc,39.45
2022-04-16T03:54:00,mcc,37.96
2022-04-16T03:55:00,mcc,36.45
2022-04-16T03:56:00,mcc,48.01
2022-04-16T03:57:00,mcc,37.35
2022-04-16T03:58:00,mcc,39.76
2022-04-16T03:59:00,mcc,40.94
2022-04-16T04:00:00,mcc,40.30
2022-04-16T04:01:00,mcc,42.91
2022-04-16T04:02:00,mcc,44.33
2022-04-16T04:03:00,mcc,38.16
2022-04-16T04:04:00,mcc,38.66
2022-04-16T04:05:00,mcc,40.75
2022-04-16T04:06:00,mcc,39.16
2022-04-16T04:07:00,mcc,39.13
2022-04-16T04:08:00,mcc,39.49
2022-04-16T04:09:00,mcc,39.34
2022-04-16T04:10:00,mcc,38.26
2022-04-16T04:11:00,mcc,38.55
2022-04-16T04:12:00,mcc,40.11
2022-04-16T04:13:00,mcc,40.65
2022-04-16T04:14:00,mcc,39.11
2022-04-16T04:15:00,mcc,45.70
2022-04-16T04:16:00,mcc,37.45
2022-04-16T04:17:00,mcc,35.39
2022-04-16T04:18:00,mcc,35.05
2022-04-16T04:19:00,mcc,39.20
2022-04-16T04:20:00,mcc,37.50
2022-04-16T04:21:00,mcc,37.01
2022-04-16T04:22:00,mcc,40.57
2022-04-16T04:23:00,mcc,40.60
2022-04-16T04:24:00,mcc,39.50
2022-04-16T04:25:00,mcc,40.83
2022-04-16T04:26:00,mcc,40.59
2022-04-16T04:27:00,mcc,41.32
2022-04-16T04:28:00,mcc,39.86
2022-04-16T04:29:00,mcc,39.82
2022-04-16T04:30:00,mcc,38.62
2022-04-16T04:31:00,mcc,41.47
2022-04-16T04:32:00,mcc,40.63
2022-04-16T04:33:00,mcc,42.84
2022-04-16T04:34:00,mcc,41.01
2022-04-16T04:35:00,mcc,41.32
2022-04-16T04:36:00,mcc,42.05
2022-04-16T04:37:00,mcc,40.73
2022-04-16T04:38:00,mcc,39.82
2022-04-16T04:39:00,mcc,38.87
2022-04-16T04:40:00,mcc,37.26
2022-04-16T04:41:00,mcc,38.43
2022-04-16T04:42:00,mcc,39.53
2022-04-16T04:43:00,mcc,37.66
2022-04-16T04:44:00,mcc,36.55
2022-04-16T04:45:00,mcc,41.12
2022-04-16T04:46:00,mcc,37.68
2022-04-16T04:47:00,mcc,40.53
2022-04-16T04:48:00,mcc,45.01
2022-04-16T04:49:00,mcc,41.07
2022-04-16T04:50:00,mcc,40.88
2022-04-16T04:51:00,mcc,40.20
2022-04-16T04:52:00,mcc,47.29
2022-04-16T04:53:00,mcc,38.43
2022-04-16T04:54:00,mcc,37.35
2022-04-16T04:55:00,mcc,37.69
2022-04-16T04:56:00,mcc,37.00
2022-04-16T04:57:00,mcc,36.64
2022-04-16T04:58:00,mcc,37.89
2022-04-16T04:59:00,mcc,39.38
2022-04-16T05:00:00,mcc,38.43
2022-04-16T05:01:00,mcc,41.89
2022-04-16T05:02:00,mcc,43.73
2022-04-16T05:03:00,mcc,40.34
2022-04-16T05:04:00,mcc,39.66
2022-04-16T05:05:00,mcc,40.24
2022-04-16T05:06:00,mcc,37.48
2022-04-16T05:07:00,mcc,37.46
2022-04-16T05:08:00,mcc,41.42
2022-04-16T05:09:00,mcc,36.76
2022-04-16T05:10:00,mcc,34.68
2022-04-16T05:11:00,mcc,45.13
2022-04-16T05:12:00,mcc,35.38
2022-04-16T05:13:00,mcc,36.02
2022-04-16T05:14:00,mcc,38.61
2022-04-16T05:15:00,mcc,37.36
2022-04-16T05:16:00,mcc,37.53
2022-04-16T05:17:00,mcc,40.16
2022-04-16T05:18:00,mcc,37.07
2022-04-16T05:19:00,mcc,38.16
2022-04-16T05:20:00,mcc,36.36
2022-04-16T05:21:00,mcc,35.29
2022-04-16T05:22:00,mcc,51.50
2022-04-16T05:23:00,mcc,50.98
2022-04-16T05:24:00,mcc,50.14
2022-04-16T05:25:00,mcc,46.17
2022-04-16T05:26:00,mcc,46.48
2022-04-16T05:27:00,mcc,37.36
2022-04-16T05:28:00,mcc,40.52
2022-04-16T05:29:00,mcc,47.25
2022-04-16T05:30:00,mcc,39.87
2022-04-16T05:31:00,mcc,42.28
2022-04-16T05:32:00,mcc,39.74
2022-04-16T05:33:00,mcc,41.39
2022-04-16T05:34:00,mcc,40.22
2022-04-16T05:35:00,mcc,38.52
2022-04-16T05:36:00,mcc,39.15
2022-04-16T05:37:00,mcc,38.82
2022-04-16T05:38:00,mcc,41.15
2022-04-16T05:39:00,mcc,39.27
2022-04-16T05:40:00,mcc,40.79
2022-04-16T05:41:00,mcc,37.56
2022-04-16T05:42:00,mcc,37.53
2022-04-16T05:43:00,mcc,38.82
2022-04-16T05:44:00,mcc,36.86
2022-04-16T05:45:00,mcc,39.41
2022-04-16T05:46:00,mcc,40.38
2022-04-16T05:47:00,mcc,39.99
2022-04-16T05:48:00,mcc,40.24
2022-04-16T05:49:00,mcc,39.58
2022-04-16T05:50:00,mcc,39.46
2022-04-16T05:51:00,mcc,43.12
2022-04-16T05:52:00,mcc,40.98
2022-04-16T05:53:00,mcc,40.42
2022-04-16T05:54:00,mcc,42.89
2022-04-16T05:55:00,mcc,39.54
2022-04-16T05:56:00,mcc,36.64
2022-04-16T05:57:00,mcc,40.96
2022-04-16T05:58:00,mcc,38.51
2022-04-16T05:59:00,mcc,39.98
2022-04-16T06:00:00,mcc,37.35
2022-04-16T06:01:00,mcc,38.14
2022-04-16T06:02:00,mcc,37.55
2022-04-16T06:03:00,mcc,38.70
2022-04-16T06:04:00,mcc,40.66
2022-04-16T06:05:00,mcc,42.86
2022-04-16T06:06:00,mcc,39.37
2022-04-16T06:07:00,mcc,39.83
2022-04-16T06:08:00,mcc,42.15
2022-04-16T06:09:00,mcc,37.17
2022-04-16T06:10:00,mcc,37.49
2022-04-16T06:11:00,mcc,40.68
2022-04-16T06:12:00,mcc,39.04
2022-04-16T06:13:00,mcc,37.81
2022-04-16T06:14:00,mcc,40.07
2022-04-16T06:15:00,mcc,38.87
2022-04-16T06:16:00,mcc,38.33
2022-04-16T06:17:00,mcc,42.35
2022-04-16T06:18:00,mcc,39.80
2022-04-16T06:19:00,mcc,38.13
2022-04-16T06:20:00,mcc,39.95
2022-04-16T06:21:00,mcc,38.15
2022-04-16T06:22:00,mcc,37.45
2022-04-16T06:23:00,mcc,38.34
2022-04-16T06:24:00,mcc,38.05
2022-04-16T06:25:00,mcc,38.04
2022-04-16T06:26:00,mcc,36.41
2022-04-16T06:27:00,mcc,44.07
2022-04-16T06:28:00,mcc,38.55
2022-04-16T06:29:00,mcc,38.19
2022-04-16T06:30:00,mcc,39.12
2022-04-16T06:31:00,mcc,40.41
2022-04-16T06:32:00,mcc,39.81
2022-04-16T06:33:00,mcc,38.89
2022-04-16T06:34:00,mcc,43.08
2022-04-16T06:35:00,mcc,39.77
2022-04-16T06:36:00,mcc,40.00
2022-04-16T06:37:00,mcc,41.50
2022-04-16T06:38:00,mcc,43.54
2022-04-16T06:39:00,mcc,41.09
2022-04-16T06:40:00,mcc,43.01
2022-04-16T06:41:00,mcc,43.04
2022-04-16T06:42:00,mcc,42.98
2022-04-16T06:43:00,mcc,44.30
2022-04-16T06:44:00,mcc,42.65
2022-04-16T06:45:00,mcc,41.09
2022-04-16T06:46:00,mcc,43.99
2022-04-16T06:47:00,mcc,41.12
2022-04-16T06:48:00,mcc,40.41
2022-04-16T06:49:00,mcc,41.27
2022-04-16T06:50:00,mcc,38.32
2022-04-16T06:51:00,mcc,37.92
2022-04-16T06:52:00,mcc,37.65
2022-04-16T06:53:00,mcc,34.63
2022-04-16T06:54:00,mcc,35.91
2022-04-16T06:55:00,mcc,36.03
2022-04-16T06:56:00,mcc,37.62
2022-04-16T06:57:00,mcc,36.94
2022-04-16T06:58:00,mcc,37.41
2022-04-16T06:59:00,mcc,36.78
2022-04-16T07:00:00,mcc,36.22
2022-04-16T07:01:00,mcc,36.84
2022-04-16T07:02:00,mcc,36.46
2022-04-16T07:03:00,mcc,38.92
2022-04-16T07:04:00,mcc,36.40
2022-04-16T07:05:00,mcc,46.81
2022-04-16T07:06:00,mcc,39.63
2022-04-16T07:07:00,mcc,37.79
2022-04-16T07:08:00,mcc,36.00
2022-04-16T07:09:00,mcc,36.93
2022-04-16T07:10:00,mcc,35.68
2022-04-16T07:11:00,mcc,35.59
2022-04-16T07:12:00,mcc,38.61
2022-04-16T07:13:00,mcc,36.31
2022-04-16T07:14:00,mcc,35.62
2022-04-16T07:15:00,mcc,35.01
2022-04-16T07:16:00,mcc,35.55
2022-04-16T07:17:00,mcc,34.77
2022-04-16T07:18:00,mcc,35.67
2022-04-16T07:19:00,mcc,35.30
2022-04-16T07:20:00,mcc,35.05
2022-04-16T07:21:00,mcc,33.84
2022-04-16T07:22:00,mcc,35.02
2022-04-16T07:23:00,mcc,39.15
2022-04-16T07:24:00,mcc,36.64
2022-04-16T07:25:00,mcc,36.73
2022-04-16T07:26:00,mcc,38.21
2022-04-16T07:27:00,mcc,36.06
2022-04-16T07:28:00,mcc,35.95
2022-04-16T07:29:00,mcc,37.26
2022-04-16T07:30:00,mcc,38.13
2022-04-16T07:31:00,mcc,38.62
2022-04-16T07:32:00,mcc,38.49
2022-04-16T07:33:00,mcc,38.21
2022-04-16T07:34:00,mcc,37.42
2022-04-16T07:35:00,mcc,40.15
2022-04-16T07:36:00,mcc,37.07
2022-04-16T07:37:00,mcc,37.28
2022-04-16T07:38:00,mcc,39.79
2022-04-16T07:39:00,mcc,35.73
2022-04-16T07:40:00,mcc,34.84
2022-04-16T07:41:00,mcc,36.70
2022-04-16T07:42:00,mcc,34.04
2022-04-16T07:43:00,mcc,35.91
2022-04-16T07:44:00,mcc,39.02
2022-04-16T07:45:00,mcc,38.04
2022-04-16T07:46:00,mcc,37.35
2022-04-16T07:47:00,mcc,36.78
2022-04-16T07:48:00,mcc,36.30
2022-04-16T07:49:00,mcc,37.13
2022-04-16T07:50:00,mcc,37.32
2022-04-16T07:51:00,mcc,37.04
2022-04-16T07:52:00,mcc,37.55
2022-04-16T07:53:00,mcc,35.40
2022-04-16T07:54:00,mcc,34.92
2022-04-16T07:55:00,mcc,36.91
2022-04-16T07:56:00,mcc,34.29
2022-04-16T07:57:00,mcc,33.28
2022-04-16T07:58:00,mcc,35.34
2022-04-16T07:59:00,mcc,37.36
2022-04-16T08:00:00,mcc,36.88
2022-04-16T08:01:00,mcc,40.95
2022-04-16T08:02:00,mcc,39.47
2022-04-16T08:03:00,mcc,38.97
2022-04-16T08:04:00,mcc,37.69
2022-04-16T08:05:00,mcc,35.03
2022-04-16T08:06:00,mcc,34.73
2022-04-16T08:07:00,mcc,36.63
2022-04-16T08:08:00,mcc,35.46
2022-04-16T08:09:00,mcc,34.84
2022-04-16T08:10:00,mcc,35.82
2022-04-16T08:11:00,mcc,34.73
2022-04-16T08:12:00,mcc,36.55
2022-04-16T08:13:00,mcc,37.22
2022-04-16T08:14:00,mcc,37.43
2022-04-16T08:15:00,mcc,37.36
2022-04-16T08:16:00,mcc,37.12
2022-04-16T08:17:00,mcc,35.39
2022-04-16T08:18:00,mcc,37.03
2022-04-16T08:19:00,mcc,34.65
2022-04-16T08:20:00,mcc,42.77
2022-04-16T08:21:00,mcc,39.58
2022-04-16T08:22:00,mcc,38.59
2022-04-16T08:23:00,mcc,36.43
2022-04-16T08:24:00,mcc,39.38
2022-04-16T08:25:00,mcc,36.74
2022-04-16T08:26:00,mcc,37.41
2022-04-16T08:27:00,mcc,35.82
2022-04-16T08:28:00,mcc,36.35
2022-04-16T08:29:00,mcc,34.61
2022-04-16T08:30:00,mcc,34.00
2022-04-16T08:31:00,mcc,35.88
2022-04-16T08:32:00,mcc,37.90
2022-04-16T08:33:00,mcc,38.10
2022-04-16T08:34:00,mcc,37.23
2022-04-16T08:35:00,mcc,38.39
2022-04-16T08:36:00,mcc,37.76
2022-04-16T08:37:00,mcc,36.73
2022-04-16T08:38:00,mcc,38.80
2022-04-16T08:39:00,mcc,37.01
2022-04-16T08:40:00,mcc,36.60
2022-04-16T08:41:00,mcc,38.73
2022-04-16T08:42:00,mcc,36.64
2022-04-16T08:43:00,mcc,36.72
2022-04-16T08:44:00,mcc,38.01
2022-04-16T08:45:00,mcc,35.87
2022-04-16T08:46:00,mcc,36.55
2022-04-16T08:47:00,mcc,37.13
2022-04-16T08:48:00,mcc,33.78
2022-04-16T08:49:00,mcc,35.68
2022-04-16T08:50:00,mcc,39.09
2022-04-16T08:51:00,mcc,35.06
2022-04-16T08:52:00,mcc,36.28
2022-04-16T08:53:00,mcc,38.11
2022-04-16T08:54:00,mcc,33.51
2022-04-16T08:55:00,mcc,33.43
2022-04-16T08:56:00,mcc,33.86
2022-04-16T08:57:00,mcc,41.97
2022-04-16T08:58:00,mcc,35.01
2022-04-16T08:59:00,mcc,34.99
2022-04-16T09:00:00,mcc,35.43
2022-04-16T09:01:00,mcc,40.69
2022-04-16T09:02:00,mcc,37.72
2022-04-16T09:03:00,mcc,37.69
2022-04-16T09:04:00,mcc,41.22
2022-04-16T09:05:00,mcc,39.01
2022-04-16T09:06:00,mcc,37.60
2022-04-16T09:07:00,mcc,39.20
2022-04-16T09:08:00,mcc,36.17
2022-04-16T09:09:00,mcc,37.20
2022-04-16T09:10:00,mcc,39.24
2022-04-16T09:11:00,mcc,36.26
2022-04-16T09:12:00,mcc,36.66
2022-04-16T09:13:00,mcc,37.14
2022-04-16T09:14:00,mcc,36.41
2022-04-16T09:15:00,mcc,36.57
2022-04-16T09:16:00,mcc,36.38
2022-04-16T09:17:00,mcc,37.53
2022-04-16T09:18:00,mcc,38.40
2022-04-16T09:19:00,mcc,37.08
2022-04-16T09:20:00,mcc,34.46
2022-04-16T09:21:00,mcc,36.09
2022-04-16T09:22:00,mcc,35.19
2022-04-16T09:23:00,mcc,34.38
2022-04-16T09:24:00,mcc,37.61
2022-04-16T09:25:00,mcc,35.70
2022-04-16T09:26:00,mcc,34.83
2022-04-16T09:27:00,mcc,37.41
2022-04-16T09:28:00,mcc,35.75
2022-04-16T09:29:00,mcc,35.11
2022-04-16T09:30:00,mcc,39.12
2022-04-16T09:31:00,mcc,36.21
2022-04-16T09:32:00,mcc,36.97
2022-04-16T09:33:00,mcc,48.58
2022-04-16T09:34:00,mcc,45.85
2022-04-16T09:35:00,mcc,52.95
2022-04-16T09:36:00,mcc,45.50
2022-04-16T09:37:00,mcc,37.32
2022-04-16T09:38:00,mcc,37.87
2022-04-16T09:39:00,mcc,38.86
2022-04-16T09:40:00,mcc,38.81
2022-04-16T09:41:00,mcc,40.34
2022-04-16T09:42:00,mcc,38.98
2022-04-16T09:43:00,mcc,37.75
2022-04-16T09:44:00,mcc,46.23
2022-04-16T09:45:00,mcc,41.44
2022-04-16T09:46:00,mcc,41.38
2022-04-16T09:47:00,mcc,43.28
2022-04-16T09:48:00,mcc,41.36
2022-04-16T09:49:00,mcc,35.59
2022-04-16T09:50:00,mcc,37.78
2022-04-16T09:51:00,mcc,35.92
2022-04-16T09:52:00,mcc,36.99
2022-04-16T09:53:00,mcc,43.82
2022-04-16T09:54:00,mcc,35.54
2022-04-16T09:55:00,mcc,36.26
2022-04-16T09:56:00,mcc,37.75
2022-04-16T09:57:00,mcc,33.28
2022-04-16T09:58:00,mcc,35.75
2022-04-16T09:59:00,mcc,35.64
2022-04-16T10:00:00,mcc,35.39
2022-04-16T10:01:00,mcc,38.21
2022-04-16T10:02:00,mcc,41.96
2022-04-16T10:03:00,mcc,41.39
2022-04-16T10:04:00,mcc,42.18
2022-04-16T10:05:00,mcc,43.37
2022-04-16T10:06:00,mcc,44.70
2022-04-16T10:07:00,mcc,47.55
2022-04-16T10:08:00,mcc,47.35
2022-04-16T10:09:00,mcc,47.64
2022-04-16T10:10:00,mcc,46.82
2022-04-16T10:11:00,mcc,41.62
2022-04-16T10:12:00,mcc,42.79
2022-04-16T10:13:00,mcc,44.13
2022-04-16T10:14:00,mcc,41.69
2022-04-16T10:15:00,mcc,40.65
2022-04-16T10:16:00,mcc,39.18
2022-04-16T10:17:00,mcc,40.00
2022-04-16T10:18:00,mcc,39.94
2022-04-16T10:19:00,mcc,40.17
2022-04-16T10:20:00,mcc,43.66
2022-04-16T10:21:00,mcc,45.55
2022-04-16T10:22:00,mcc,43.01
2022-04-16T10:23:00,mcc,41.92
2022-04-16T10:24:00,mcc,43.95
2022-04-16T10:25:00,mcc,40.13
2022-04-16T10:26:00,mcc,40.07
2022-04-16T10:27:00,mcc,41.55
2022-04-16T10:28:00,mcc,39.52
2022-04-16T10:29:00,mcc,39.81
2022-04-16T10:30:00,mcc,44.34
2022-04-16T10:31:00,mcc,49.59
2022-04-16T10:32:00,mcc,41.42
2022-04-16T10:33:00,mcc,42.65
2022-04-16T10:34:00,mcc,44.00
2022-04-16T10:35:00,mcc,42.87
2022-04-16T10:36:00,mcc,44.44
2022-04-16T10:37:00,mcc,45.06
2022-04-16T10:38:00,mcc,47.80
2022-04-16T10:39:00,mcc,45.66
2022-04-16T10:40:00,mcc,45.08
2022-04-16T10:41:00,mcc,44.06
2022-04-16T10:42:00,mcc,40.61
2022-04-16T10:43:00,mcc,42.86
2022-04-16T10:44:00,mcc,43.95
2022-04-16T10:45:00,mcc,41.68
2022-04-16T10:46:00,mcc,41.97
2022-04-16T10:47:00,mcc,44.07
2022-04-16T10:48:00,mcc,41.27
2022-04-16T10:49:00,mcc,39.99
2022-04-16T10:50:00,mcc,42.50
2022-04-16T10:51:00,mcc,42.18
2022-04-16T10:52:00,mcc,40.34
2022-04-16T10:53:00,mcc,41.35
2022-04-16T10:54:00,mcc,39.38
2022-04-16T10:55:00,mcc,40.58
2022-04-16T10:56:00,mcc,43.94
2022-04-16T10:57:00,mcc,45.52
2022-04-16T10:58:00,mcc,46.97
2022-04-16T10:59:00,mcc,44.11
2022-04-16T11:00:00,mcc,43.44
2022-04-16T11:01:00,mcc,43.00
2022-04-16T11:02:00,mcc,40.16
2022-04-16T11:03:00,mcc,44.68
2022-04-16T11:04:00,mcc,48.67
2022-04-16T11:05:00,mcc,47.17
2022-04-16T11:06:00,mcc,46.41
2022-04-16T11:07:00,mcc,47.47
2022-04-16T11:08:00,mcc,54.68
2022-04-16T11:09:00,mcc,45.66
2022-04-16T11:10:00,mcc,45.37
2022-04-16T11:11:00,mcc,43.90
2022-04-16T11:12:00,mcc,43.84
2022-04-16T11:13:00,mcc,42.18
2022-04-16T11:14:00,mcc,41.50
2022-04-16T11:15:00,mcc,43.67
2022-04-16T11:16:00,mcc,42.72
2022-04-16T11:17:00,mcc,46.33
2022-04-16T11:18:00,mcc,45.63
2022-04-16T11:19:00,mcc,46.65
2022-04-16T11:20:00,mcc,47.38
2022-04-16T11:21:00,mcc,50.08
2022-04-16T11:22:00,mcc,48.67
2022-04-16T11:23:00,mcc,48.20
2022-04-16T11:24:00,mcc,52.15
2022-04-16T11:25:00,mcc,45.62
2022-04-16T11:26:00,mcc,47.90
2022-04-16T11:27:00,mcc,46.53
2022-04-16T11:28:00,mcc,48.82
2022-04-16T11:29:00,mcc,47.29
2022-04-16T11:30:00,mcc,47.39
2022-04-16T11:31:00,mcc,50.76
2022-04-16T11:32:00,mcc,45.55
2022-04-16T11:33:00,mcc,50.59
2022-04-16T11:34:00,mcc,52.00
2022-04-16T11:35:00,mcc,48.63
2022-04-16T11:36:00,mcc,48.05
2022-04-16T11:37:00,mcc,50.30
2022-04-16T11:38:00,mcc,48.33
2022-04-16T11:39:00,mcc,48.37
2022-04-16T11:40:00,mcc,46.75
2022-04-16T11:41:00,mcc,48.47
2022-04-16T11:42:00,mcc,44.14
2022-04-16T11:43:00,mcc,47.00
2022-04-16T11:44:00,mcc,44.11
2022-04-16T11:45:00,mcc,45.72
2022-04-16T11:46:00,mcc,47.28
2022-04-16T11:47:00,mcc,48.17
2022-04-16T11:48:00,mcc,48.44
2022-04-16T11:49:00,mcc,47.86
2022-04-16T11:50:00,mcc,48.73
2022-04-16T11:51:00,mcc,48.14
2022-04-16T11:52:00,mcc,48.12
2022-04-16T11:53:00,mcc,52.88
2022-04-16T11:54:00,mcc,51.31
2022-04-16T11:55:00,mcc,54.57
2022-04-16T11:56:00,mcc,51.95
2022-04-16T11:57:00,mcc,50.11
2022-04-16T11:58:00,mcc,51.72
2022-04-16T11:59:00,mcc,51.11
2022-04-16T12:00:00,mcc,53.10
2022-04-16T12:01:00,mcc,52.24
2022-04-16T12:02:00,mcc,54.41
2022-04-16T12:03:00,mcc,53.33
2022-04-16T12:04:00,mcc,53.47
2022-04-16T12:05:00,mcc,53.41
2022-04-16T12:06:00,mcc,53.12
2022-04-16T12:07:00,mcc,50.27
2022-04-16T12:08:00,mcc,52.59
2022-04-16T12:09:00,mcc,51.47
2022-04-16T12:10:00,mcc,53.43
2022-04-16T12:11:00,mcc,50.56
2022-04-16T12:12:00,mcc,51.60
2022-04-16T12:13:00,mcc,54.87
2022-04-16T12:14:00,mcc,52.70
2022-04-16T12:15:00,mcc,53.44
2022-04-16T12:16:00,mcc,51.85
2022-04-16T12:17:00,mcc,51.62
2022-04-16T12:18:00,mcc,51.31
2022-04-16T12:19:00,mcc,50.40
2022-04-16T12:20:00,mcc,48.83
2022-04-16T12:21:00,mcc,68.05
2022-04-16T12:22:00,mcc,49.24
2022-04-16T12:23:00,mcc,49.83
2022-04-16T12:24:00,mcc,50.66
2022-04-16T12:25:00,mcc,49.35
2022-04-16T12:26:00,mcc,48.73
2022-04-16T12:27:00,mcc,51.23
2022-04-16T12:28:00,mcc,49.10
2022-04-16T12:29:00,mcc,51.32
2022-04-16T12:30:00,mcc,51.91
2022-04-16T12:31:00,mcc,52.24
2022-04-16T12:32:00,mcc,54.04
2022-04-16T12:33:00,mcc,51.66
2022-04-16T12:34:00,mcc,54.81
2022-04-16T12:35:00,mcc,55.57
2022-04-16T12:36:00,mcc,58.08
2022-04-16T12:37:00,mcc,56.96
2022-04-16T12:38:00,mcc,54.23
2022-04-16T12:39:00,mcc,52.41
2022-04-16T12:40:00,mcc,60.79
2022-04-16T12:41:00,mcc,52.34
2022-04-16T12:42:00,mcc,54.13
2022-04-16T12:43:00,mcc,49.17
2022-04-16T12:44:00,mcc,49.39
2022-04-16T12:45:00,mcc,48.07
2022-04-16T12:46:00,mcc,47.26
2022-04-16T12:47:00,mcc,49.96
2022-04-16T12:48:00,mcc,48.11
2022-04-16T12:49:00,mcc,46.62
2022-04-16T12:50:00,mcc,47.04
2022-04-16T12:51:00,mcc,48.16
2022-04-16T12:52:00,mcc,51.57
2022-04-16T12:53:00,mcc,50.93
2022-04-16T12:54:00,mcc,51.83
2022-04-16T12:55:00,mcc,47.34
2022-04-16T12:56:00,mcc,46.32
2022-04-16T12:57:00,mcc,51.34
2022-04-16T12:58:00,mcc,58.51
2022-04-16T12:59:00,mcc,50.23
2022-04-16T13:00:00,mcc,49.62
2022-04-16T13:01:00,mcc,50.46
2022-04-16T13:02:00,mcc,57.61
2022-04-16T13:03:00,mcc,58.59
2022-04-16T13:04:00,mcc,59.61
2022-04-16T13:05:00,mcc,72.79
2022-04-16T13:06:00,mcc,59.32
2022-04-16T13:07:00,mcc,61.17
2022-04-16T13:08:00,mcc,60.67
2022-04-16T13:09:00,mcc,59.68
2022-04-16T13:10:00,mcc,61.03
2022-04-16T13:11:00,mcc,57.72
2022-04-16T13:12:00,mcc,57.66
2022-04-16T13:13:00,mcc,56.97
2022-04-16T13:14:00,mcc,56.61
2022-04-16T13:15:00,mcc,58.91
2022-04-16T13:16:00,mcc,57.10
2022-04-16T13:17:00,mcc,64.56
2022-04-16T13:18:00,mcc,59.17